Location: Podia
(1.5569°N, 32.3469°E)
Time: 20:04:41
(UTC+00:00)

Envisat - Visible Passes

Search period start: 11 August 2020 00:00
Search period end: 21 August 2020 00:00
Orbit: 764 x 766 km, 98.1° (Epoch: 11 August)

Date Brightness Start Highest point End Pass type
(mag) Time Alt. Az. Time Alt. Az. Time Alt. Az.
11 Aug 4.3 03:14:20 10° NNE 03:19:08 43° ESE 03:23:55 10° S visible
12 Aug 5.8 02:39:35 10° ENE 02:42:26 15° ESE 02:45:18 10° SE visible
12 Aug 6.1 16:51:28 10° WSW 16:53:07 11° WSW 16:54:45 10° W visible
14 Aug 4.9 03:03:21 10° NE 03:07:48 31° ESE 03:12:16 10° SSE visible
15 Aug 6.2 02:30:01 10° E 02:31:08 11° ESE 02:32:15 10° ESE visible
15 Aug 5.8 16:38:44 10° SW 16:41:48 16° WSW 16:44:52 10° WNW visible
17 Aug 5.4 02:52:31 10° NE 02:56:30 23° ESE 03:00:27 10° SSE visible
18 Aug 5.6 16:26:37 10° SSW 16:30:29 22° WSW 16:34:21 10° NW visible
19 Aug 4.1 03:16:59 10° NNE 03:21:51 48° ESE 03:26:44 10° S visible
20 Aug 5.8 02:41:56 10° ENE 02:45:11 17° ESE 02:48:24 10° SE visible
